This demonstration page uses our WeatherBlox Daily Observations layout. Learn more.

38.88101, -77.10428

Hourly Observations for January 5, 2016

Temp ( °F °C ) Dew Point ( °F °C ) Humidity (%) Winds ( mph kmh ) Pressure ( in mb ) Visibility ( mi km ) Precip ( " mm )
12:52 am 00:52 Clear 19 -7 1 -17 45 45 N 23 37 30.48 1032 10 16.09344 0 0
1:52 am 01:52 Clear 19 -7 1 -17 45 45 N 21 33 30.5 1033 10 16.09344 0 0
2:52 am 02:52 Clear 18 -8 0 -18 45 45 N 18 30 30.53 1034 10 16.09344 0 0
3:52 am 03:52 Clear 18 -8 1 -17 49 49 NNW 22 35 30.53 1034 10 16.09344 0 0
4:52 am 04:52 Clear 16 -9 1 -17 53 53 N 15 24 30.56 1035 10 16.09344 0 0
5:52 am 05:52 Clear 16 -9 1 -17 53 53 NNW 15 24 30.59 1036 10 16.09344 0 0
6:52 am 06:52 Clear 16 -9 1 -17 53 53 NNW 16 26 30.59 1036 10 16.09344 0 0
7:52 am 07:52 Sunny 18 -8 3 -16 53 53 NNW 13 20 30.62 1037 10 16.09344 0 0
8:52 am 08:52 Sunny 19 -7 3 -16 49 49 N 15 24 30.65 1038 10 16.09344 0 0
9:52 am 09:52 Sunny 21 -6 3 -16 45 45 N 10 17 30.68 1039 10 16.09344 0 0
10:52 am 10:52 Sunny 25 -4 3 -16 39 39 NNW 10 17 30.68 1039 10 16.09344 0 0
11:52 am 11:52 Sunny 28 -2 3 -16 34 34 NNW 8 13 30.68 1039 10 16.09344 0 0
12:52 pm 12:52 Sunny 30 -1 3 -16 31 31 N 6 9 30.65 1038 10 16.09344 0 0
1:52 pm 13:52 Sunny 34 1 3 -16 27 27 NNW 8 13 30.62 1037 10 16.09344 0 0
2:52 pm 14:52 Sunny 34 1 3 -16 27 27 NW 7 11 30.62 1037 10 16.09344 0 0
3:52 pm 15:52 Sunny 34 1 3 -16 27 27 N 3 6 30.65 1038 10 16.09344 0 0
4:52 pm 16:52 Sunny 32 0 3 -16 29 29 NW 3 6 30.65 1038 10 16.09344 0 0
5:52 pm 17:52 Clear 30 -1 5 -15 34 34 NW 8 13 30.65 1038 10 16.09344 0 0
6:52 pm 18:52 Clear 30 -1 7 -14 37 37 NW 8 13 30.68 1039 10 16.09344 0 0
7:52 pm 19:52 Clear 28 -2 7 -14 40 40 NNW 6 9 30.68 1039 10 16.09344 0 0
8:52 pm 20:52 Clear 28 -2 7 -14 40 40 NNW 6 9 30.68 1039 10 16.09344 0 0
9:52 pm 21:52 Clear 28 -2 9 -13 43 43 Calm 30.65 1038 10 16.09344 0 0
10:52 pm 22:52 Clear 27 -3 10 -12 50 50 WSW 3 6 30.65 1038 10 16.09344 0 0
11:52 pm 23:52 Clear 27 -3 12 -11 54 54 Calm 30.65 1038 10 16.09344 0 0

Powered by AerisWeather